カタログに戻る

STARLINK-30320

運用中通信VLEO
NORAD 57678·PAYLOAD·🇺🇸 United States

打ち上げ Aug 22, 2023 から Vandenberg Space Force Base

Loading…

次のパス (今後24時間)

TLE

最新Source: CelesTrak SupGP

元期: Sep 15, 2026, 02:04 UTC

1 57678C 23124R   26258.08659722 -.00001406  00000+0 -41536-4 0  2580
2 57678  53.1589  30.8296 0001254  89.7284 318.8788 15.34385030    10

AllMySatでSTARLINK-30320をリアルタイム追跡

Download on the App Store